Location: Recife
(8.0585°S, 34.8848°W)
Time: 02:58:47
(UTC-03:00)

Vanguard 3 - Pass Details

Date: 22 April 2026
Orbit: 507 x 3205 km, 33.4° (Epoch: 15 May)

Event Time Altitude Azimuth Distance (km) Brightness Sun altitude
Exits shadow 03:09:31 - 2° (N) 2,532 9.8 -33.0°
Reaches altitude 10° 03:10:23 10° 10° (N) 2,392 9.7 -32.8°
Maximum altitude 03:13:48 16° 48° (NE) 2,352 10.0 -32.0°
Drops below altitude 10° 03:18:15 10° 83° (E) 3,282 11.1 -30.9°
Sets 03:23:30 0° 101° (E) 4,874 12.1 -29.6°
